Location: Clarion
(42.7316°N, 93.7330°W)
Time: 22:38:22
(UTC+00:00)

Cosmos 468 Rocket - Pass Details

Date: 22 April 2026
Orbit: 740 x 774 km, 74.0° (Epoch: 12 May)

Event Time Altitude Azimuth Distance (km) Brightness Sun altitude
Exits shadow 09:26:49 38° 221° (SW) 1,167 4.4 -19.5°
Maximum altitude 09:28:48 68° 292° (WNW) 831 4.0 -19.2°
Drops below altitude 10° 09:34:05 10° 15° (NNE) 2,330 7.3 -18.4°
Sets 09:36:30 0° 18° (NNE) 3,260 8.2 -18.1°
